Oak Ridge, TN

6:24 PM EDT on July 22, 2017 (GMT -0400)
Oak Ridge

Weather History for KOQT - February, 2014

Change the Weather History Date:

Tuesday, February 4, 2014

  Actual Average (KTYS) Record (KTYS)
Temperature  
Mean Temperature 44 °F -  
Max Temperature 50 °F 48 °F 72 °F (1986)
Min Temperature 37 °F 29 °F 0 °F (1970)
Degree Days  
Heating Degree Days 22    
Moisture  
Dew Point 37 °F    
Average Humidity 79    
Maximum Humidity 93    
Minimum Humidity 59    
Precipitation  
Precipitation 0.05 in - - ()
Sea Level Pressure  
Sea Level Pressure 30.11 in    
Wind  
Wind Speed 4 mph (NE)    
Max Wind Speed 6 mph    
Max Gust Speed -    
Visibility 9 miles    
Events Rain    
Averages and records for this station are not official NWS values.
T = Trace of Precipitation, MM = Missing Value Source: NWS Daily Summary

Daily Weather History Graph

Daily Weather History Graph

Search for Another Location

Airport or City:

Trip Planner

Search our weather history database for the weather conditions in past years. The results will help you decide how hot, cold, wet, or windy it might be!

Date:

Astronomy

Feb. 04, 2014 Rise Set
Actual Time 7:35 AM EST 6:07 PM EST
Civil Twilight 7:08 AM EST 6:33 PM EST
Nautical Twilight 6:37 AM EST 7:04 PM EST
Astronomical Twilight 6:07 AM EST 7:34 PM EST
Moon 10:24 AM EST (2/4) 11:47 PM EST (2/4)
Length of Visible Light 11h 25m
Length of Day
10h 31m
Waxing Crescent, 29% of the Moon is Illuminated
Feb 4
Waxing Crescent
Feb 6
First Quarter
Feb 14
Full
Feb 22
Last Quarter
Mar 1
New

Hourly Weather History & Observations

Time (EST) Temp. Windchill Dew Point Humidity Pressure Visibility Wind Dir Wind Speed Gust Speed Precip Events Conditions
12:53 AM 39.0 °F 35.7 °F 33.1 °F 79% 30.24 in 10.0 mi NE 4.6 mph - N/A   Overcast
1:53 AM 37.9 °F 34.4 °F 33.1 °F 83% 30.25 in 10.0 mi NE 4.6 mph - N/A   Overcast
2:53 AM 37.0 °F 33.3 °F 32.0 °F 82% 30.25 in 10.0 mi NE 4.6 mph - N/A   Overcast
3:53 AM 37.9 °F 34.4 °F 32.0 °F 79% 30.24 in 10.0 mi NE 4.6 mph - N/A   Overcast
4:53 AM 37.9 °F 34.4 °F 32.0 °F 79% 30.25 in 10.0 mi NE 4.6 mph - N/A   Overcast
5:53 AM 37.9 °F 34.4 °F 32.0 °F 79% 30.26 in 10.0 mi Variable 4.6 mph - N/A   Overcast
6:32 AM 37.9 °F - 32.0 °F 79% 30.23 in 10.0 mi Calm Calm - N/A   Overcast
6:53 AM 37.9 °F 33.5 °F 32.0 °F 79% 30.26 in 10.0 mi NE 5.8 mph - N/A   Overcast
7:53 AM 37.9 °F 35.5 °F 33.1 °F 83% 30.27 in 10.0 mi NNE 3.5 mph - N/A   Overcast
8:53 AM 39.0 °F 35.7 °F 33.1 °F 79% 30.28 in 10.0 mi Variable 4.6 mph - N/A   Overcast
9:53 AM 39.9 °F 36.7 °F 34.0 °F 79% 30.28 in 10.0 mi NE 4.6 mph - N/A   Overcast
10:53 AM 43.0 °F 40.3 °F 35.1 °F 74% 30.25 in 10.0 mi Variable 4.6 mph - N/A   Mostly Cloudy
11:08 AM 43.0 °F 39.5 °F 35.1 °F 74% 30.20 in 10.0 mi East 5.8 mph - N/A   Partly Cloudy
11:53 AM 46.0 °F 43.9 °F 35.1 °F 66% 30.19 in 10.0 mi North 4.6 mph - N/A   Scattered Clouds
12:33 PM 46.0 °F 43.9 °F 35.1 °F 66% 30.13 in 10.0 mi ENE 4.6 mph - N/A   Overcast
12:53 PM 46.9 °F - 35.1 °F 63% 30.13 in 10.0 mi Variable 3.5 mph - N/A   Overcast
1:21 PM 46.9 °F - 36.0 °F 66% 30.09 in 10.0 mi Calm Calm - N/A   Overcast
1:53 PM 48.0 °F - 36.0 °F 63% 30.09 in 10.0 mi ENE 4.6 mph - N/A   Overcast
2:53 PM 50.0 °F - 36.0 °F 59% 30.05 in 10.0 mi NNE 3.5 mph - N/A   Mostly Cloudy
3:53 PM 50.0 °F - 37.0 °F 61% 30.02 in 10.0 mi NE 4.6 mph - N/A   Overcast
4:53 PM 50.0 °F - 37.0 °F 61% 29.99 in 10.0 mi NE 4.6 mph - N/A   Overcast
5:53 PM 46.0 °F - 43.0 °F 89% 29.99 in 5.0 mi Calm Calm - 0.04 in Rain Light Rain
6:01 PM 46.9 °F - 42.1 °F 83% 29.96 in 10.0 mi Calm Calm - 0.00 in   Overcast
6:53 PM 46.0 °F - 43.0 °F 89% 29.97 in 9.0 mi Calm Calm - 0.00 in   Overcast
7:53 PM 46.0 °F 44.8 °F 43.0 °F 89% 29.97 in 9.0 mi WSW 3.5 mph - N/A   Overcast
8:53 PM 46.0 °F 44.8 °F 44.1 °F 93% 29.93 in 8.0 mi SSE 3.5 mph - N/A   Overcast
9:41 PM 46.0 °F 44.8 °F 44.1 °F 93% 29.91 in 9.0 mi Variable 3.5 mph - N/A   Overcast
9:53 PM 46.9 °F - 43.0 °F 86% 29.93 in 9.0 mi WSW 5.8 mph - N/A   Overcast
10:11 PM 46.0 °F 43.1 °F 44.1 °F 93% 29.90 in 9.0 mi SW 5.8 mph - N/A   Overcast
10:53 PM 46.0 °F 44.8 °F 44.1 °F 93% 29.91 in 7.0 mi WSW 3.5 mph - 0.00 in   Overcast
11:53 PM 46.9 °F - 45.0 °F 93% 29.88 in 7.0 mi SSW 5.8 mph - 0.01 in Rain Light Rain